When you browse on this site, cookies collect data to enhance your experience and personalize the content and advertising you see.
Visit our Privacy Policy to learn more. By continuing to use the site, you agree to this use of cookies and data.
  • In United Kingdom
  • List of Countries
  • For 7 days
  • Water Temperature
  • Satellite Maps
  • Weather Map
  • Weather Widgets
  • user-avatar
    Login

    Hourly Weather Kanye

    Today, 21 January, Monday

    Time Temperature Precipitation Wind Pressure Humidity
    00:00 +22°C° 0 mm 3 mps 654 mmHg 55%
    01:00 +21°C° 0 mm 3 mps 653 mmHg 56%
    02:00 +21°C° 0 mm 4 mps 654 mmHg 61%
    03:00 +20°C° 0 mm 4 mps 654 mmHg 63%
    04:00 +20°C° 0 mm 4 mps 654 mmHg 66%
    05:00 +19°C° 0 mm 4 mps 654 mmHg 69%
    06:00 +20°C° 0 mm 5 mps 654 mmHg 67%
    07:00 +21°C° 0 mm 5 mps 655 mmHg 65%
    08:00 +22°C° 0 mm 6 mps 655 mmHg 64%
    09:00 +23°C° 0 mm 5 mps 656 mmHg 56%
    10:00 +26°C° 0 mm 5 mps 656 mmHg 48%
    11:00 +28°C° 0 mm 4 mps 656 mmHg 41%
    12:00 +29°C° 0 mm 4 mps 656 mmHg 35%
    13:00 +30°C° 0 mm 3 mps 655 mmHg 30%
    14:00 +31°C° 0 mm 3 mps 655 mmHg 25%
    15:00 +33°C° 0 mm 3 mps 654 mmHg 24%
    16:00 +32°C° 0 mm 2 mps 654 mmHg 23%
    17:00 +32°C° 0 mm 2 mps 653 mmHg 22%
    18:00 +31°C° 0 mm 2 mps 653 mmHg 24%
    19:00 +29°C° 0 mm 2 mps 653 mmHg 26%
    20:00 +28°C° 0 mm 2 mps 652 mmHg 28%
    21:00 +27°C° 0 mm 2 mps 652 mmHg 30%
    22:00 +26°C° 0 mm 2 mps 652 mmHg 31%
    23:00 +25°C° 0 mm 2 mps 652 mmHg 33%

    Tomorrow, 22 January, Tuesday

    Time Temperature Precipitation Wind Pressure Humidity
    00:00 +24°C° 0 mm 2 mps 652 mmHg 33%
    01:00 +24°C° 0 mm 2 mps 652 mmHg 34%
    02:00 +23°C° 0 mm 1 mps 651 mmHg 34%
    03:00 +23°C° 0 mm 1 mps 651 mmHg 35%
    04:00 +22°C° 0 mm 1 mps 651 mmHg 36%
    05:00 +22°C° 0 mm 1 mps 651 mmHg 37%
    06:00 +23°C° 0 mm 2 mps 652 mmHg 36%
    07:00 +25°C° 0 mm 2 mps 652 mmHg 34%
    08:00 +26°C° 0 mm 3 mps 653 mmHg 32%
    09:00 +28°C° 0 mm 3 mps 653 mmHg 30%
    10:00 +30°C° 0 mm 3 mps 654 mmHg 27%
    11:00 +33°C° 0 mm 3 mps 654 mmHg 25%
    12:00 +34°C° 0 mm 2 mps 654 mmHg 22%
    13:00 +35°C° 0 mm 2 mps 653 mmHg 19%
    14:00 +37°C° 0 mm 2 mps 653 mmHg 16%
    15:00 +37°C° 0 mm 2 mps 652 mmHg 16%
    16:00 +37°C° 0 mm 2 mps 652 mmHg 15%
    17:00 +37°C° 0 mm 2 mps 651 mmHg 15%
    18:00 +35°C° 0 mm 2 mps 651 mmHg 18%
    19:00 +31°C° 0 mm 1 mps 650 mmHg 20%
    20:00 +29°C° 0 mm 1 mps 650 mmHg 23%
    21:00 +29°C° 0 mm 1 mps 650 mmHg 24%
    22:00 +28°C° 0 mm 1 mps 650 mmHg 25%
    23:00 +28°C° 0 mm 1 mps 650 mmHg 26%

    Day after tomorrow, 23 January, Wednesday

    Time Temperature Precipitation Wind Pressure Humidity
    00:00 +28°C° 0 mm 1 mps 650 mmHg 25%
    01:00 +28°C° 0 mm 1 mps 649 mmHg 24%
    02:00 +28°C° 0 mm 2 mps 649 mmHg 24%
    03:00 +27°C° 0 mm 1 mps 649 mmHg 24%
    04:00 +26°C° 0 mm 1 mps 649 mmHg 25%
    05:00 +26°C° 0 mm 1 mps 649 mmHg 26%
    06:00 +26°C° 0 mm 1 mps 650 mmHg 26%
    07:00 +27°C° 0 mm 1 mps 650 mmHg 26%
    08:00 +28°C° 0 mm 2 mps 651 mmHg 26%
    09:00 +30°C° 0 mm 1 mps 651 mmHg 23%
    10:00 +33°C° 0 mm 1 mps 652 mmHg 20%
    11:00 +33°C° 0 mm 0 mps 652 mmHg 17%
    12:00 +36°C° 0 mm 1 mps 652 mmHg 16%
    13:00 +37°C° 0 mm 1 mps 651 mmHg 15%
    14:00 +39°C° 0 mm 1 mps 651 mmHg 14%
    15:00 +39°C° 0 mm 2 mps 650 mmHg 14%
    16:00 +38°C° 0 mm 2 mps 650 mmHg 15%
    17:00 +38°C° 0 mm 2 mps 649 mmHg 15%
    18:00 +36°C° 0 mm 2 mps 649 mmHg 16%
    19:00 +35°C° 0 mm 2 mps 649 mmHg 18%
    20:00 +34°C° 0 mm 2 mps 649 mmHg 19%
    21:00 +32°C° 0 mm 2 mps 649 mmHg 20%
    22:00 +31°C° 0 mm 2 mps 649 mmHg 22%
    23:00 +30°C° 0 mm 2 mps 649 mmHg 23%

    24 January, Thursday

    Time Temperature Precipitation Wind Pressure Humidity
    00:00 +30°C° 0 mm 2 mps 649 mmHg 23%
    01:00 +30°C° 0 mm 2 mps 649 mmHg 24%
    02:00 +29°C° 0 mm 1 mps 648 mmHg 24%
    03:00 +29°C° 0 mm 1 mps 648 mmHg 25%
    04:00 +28°C° 0 mm 1 mps 649 mmHg 26%
    05:00 +27°C° 0 mm 1 mps 649 mmHg 28%
    06:00 +28°C° 0 mm 2 mps 649 mmHg 28%
    07:00 +29°C° 0 mm 3 mps 650 mmHg 28%
    08:00 +30°C° 0 mm 4 mps 651 mmHg 27%
    09:00 +32°C° 0 mm 5 mps 651 mmHg 26%
    10:00 +34°C° 0 mm 5 mps 652 mmHg 25%
    11:00 +36°C° 0 mm 5 mps 652 mmHg 23%
    12:00 +37°C° 0 mm 4 mps 651 mmHg 21%
    13:00 +38°C° 0 mm 3 mps 651 mmHg 19%
    14:00 +39°C° 0 mm 2 mps 651 mmHg 17%
    15:00 +39°C° 0 mm 2 mps 650 mmHg 16%
    16:00 +37°C° 0 mm 1 mps 650 mmHg 16%
    17:00 +37°C° 0 mm 1 mps 649 mmHg 16%
    18:00 +36°C° 0 mm 1 mps 649 mmHg 18%
    19:00 +34°C° 0 mm 1 mps 649 mmHg 19%
    20:00 +32°C° 0 mm 2 mps 649 mmHg 21%
    21:00 +32°C° 0 mm 2 mps 649 mmHg 22%
    22:00 +31°C° 0 mm 3 mps 649 mmHg 23%
    23:00 +32°C° 0 mm 4 mps 650 mmHg 24%

    25 January, Friday

    Time Temperature Precipitation Wind Pressure Humidity
    00:00 +30°C° 0 mm 4 mps 650 mmHg 28%
    01:00 +30°C° 0 mm 4 mps 650 mmHg 31%
    02:00 +29°C° 0 mm 4 mps 650 mmHg 35%
    03:00 +28°C° 0.1 mm 5 mps 650 mmHg 37%
    04:00 +27°C° 0.1 mm 7 mps 650 mmHg 38%
    05:00 +24°C° 0.1 mm 8 mps 651 mmHg 40%
    06:00 +26°C° 0 mm 8 mps 651 mmHg 39%
    07:00 +26°C° 0 mm 7 mps 652 mmHg 39%
    08:00 +26°C° 0 mm 7 mps 653 mmHg 39%
    09:00 +28°C° 0 mm 7 mps 653 mmHg 37%
    10:00 +30°C° 0 mm 7 mps 653 mmHg 34%
    11:00 +33°C° 0 mm 7 mps 654 mmHg 32%
    12:00 +34°C° 0 mm 6 mps 653 mmHg 29%
    13:00 +36°C° 0 mm 6 mps 653 mmHg 26%
    14:00 +38°C° 0 mm 6 mps 653 mmHg 22%
    15:00 +37°C° 0 mm 5 mps 652 mmHg 21%
    16:00 +37°C° 0 mm 5 mps 652 mmHg 21%
    17:00 +37°C° 0 mm 5 mps 651 mmHg 20%
    18:00 +34°C° 0.7 mm 5 mps 651 mmHg 28%
    19:00 +30°C° 0.7 mm 5 mps 650 mmHg 36%
    20:00 +27°C° 0.7 mm 5 mps 650 mmHg 44%
    21:00 +27°C° 0.3 mm 4 mps 650 mmHg 46%
    22:00 +27°C° 0.3 mm 4 mps 651 mmHg 48%
    23:00 +26°C° 0.3 mm 4 mps 651 mmHg 50%

    26 January, Saturday

    Time Temperature Precipitation Wind Pressure Humidity
    00:00 +25°C° 0 mm 4 mps 651 mmHg 54%
    01:00 +25°C° 0 mm 4 mps 650 mmHg 58%
    02:00 +23°C° 0 mm 4 mps 650 mmHg 62%
    03:00 +23°C° 0.1 mm 4 mps 650 mmHg 61%
    04:00 +22°C° 0.1 mm 3 mps 650 mmHg 61%
    05:00 +22°C° 0.1 mm 3 mps 651 mmHg 61%
    06:00 +23°C° 0.2 mm 4 mps 651 mmHg 59%
    07:00 +23°C° 0.2 mm 6 mps 652 mmHg 58%
    08:00 +24°C° 0.2 mm 7 mps 653 mmHg 56%
    09:00 +26°C° 0 mm 7 mps 653 mmHg 51%
    10:00 +28°C° 0 mm 7 mps 653 mmHg 46%
    11:00 +30°C° 0 mm 7 mps 654 mmHg 41%
    12:00 +32°C° 0 mm 6 mps 653 mmHg 37%
    13:00 +33°C° 0 mm 6 mps 653 mmHg 32%
    14:00 +35°C° 0 mm 5 mps 653 mmHg 28%
    15:00 +35°C° 0 mm 5 mps 652 mmHg 26%
    16:00 +35°C° 0 mm 4 mps 651 mmHg 24%
    17:00 +36°C° 0 mm 4 mps 651 mmHg 23%
    18:00 +34°C° 0 mm 3 mps 650 mmHg 26%
    19:00 +31°C° 0 mm 3 mps 650 mmHg 28%
    20:00 +29°C° 0 mm 2 mps 650 mmHg 31%
    21:00 +28°C° 0.3 mm 4 mps 651 mmHg 37%
    22:00 +27°C° 0.3 mm 5 mps 651 mmHg 42%
    23:00 +26°C° 0.3 mm 6 mps 651 mmHg 48%
    Show more